Location: Girdwood
(60.9430°N, 149.1660°W)
Time: 23:02:13
(UTC-08:00)

Amateur Radio Satellites - All Passes

Search period start: 29 July 2014 22:32
Search period end: 30 July 2014 22:32
Location: Girdwood, 60.9430°N, 149.1660°W

Satellite Date Start Highest point End Downlink Frequencies (MHz)
Time Altitude Azimuth
FUNcube-1 29 Jul 22:42:14 22:46:26 61° 67° (ENE) 22:50:35 145.950 - 145.970 MHz USB
Oscar 10/S400 29 Jul 22:48:37 23:08:34 26° 144° (SE) 00:19:01 145.825 - 145.975 CW/USB, Beacon 145.810 USB
HO-68 29 Jul 22:57:15 23:03:52 39° 265° (W) 23:10:31 435.675 MHz FM
OPAL 29 Jul 23:05:28 23:05:36 10° 349° (N) 23:05:44 ?
UKube-1 29 Jul 23:10:56 23:14:39 27° 267° (W) 23:18:25 145.840 MHz, 145.915 MHz
MaSat-1 29 Jul 23:17:31 23:22:00 58° 125° (SE) 23:27:03 437.345 MHz
STRAND 1 29 Jul 23:50:08 23:53:31 18° 322° (NW) 23:56:53 ?
Oscar 11 29 Jul 23:55:36 23:58:56 21° 271° (W) 00:02:17 145.825 FM, Beacon 2401.500 USB
UOSAT-12 30 Jul 00:08:56 00:12:48 25° 236° (WSW) 00:16:38 437.025 FM, 437.400 FM
FUNcube-1 30 Jul 00:19:34 00:23:12 27° 268° (W) 00:26:48 145.950 - 145.970 MHz USB
RS-15 30 Jul 00:21:36 00:31:15 38° 246° (WSW) 00:41:09 29.354 - 29.394 USB, Beacon 29.352 USB
OPAL 30 Jul 00:41:35 00:42:33 11° 14° (NNE) 00:43:31 ?
HO-68 30 Jul 00:52:05 00:53:54 11° 290° (WNW) 00:55:43 435.675 MHz FM
MaSat-1 30 Jul 00:54:52 00:59:31 52° 329° (NNW) 01:04:39 437.345 MHz
Sapphire 30 Jul 01:23:34 01:27:12 19° 110° (ESE) 01:30:51 437.095 MHz 1200 baud AX-25 AFSK
AO-40 30 Jul 01:32:15 04:57:31 17° 185° (S) 08:19:19 Beacon 2401.320
JAS-1B 30 Jul 01:35:51 01:38:23 11° 54° (NE) 01:40:52 435.800 - 435.900 CW/SSB
PCSat 30 Jul 01:55:29 02:00:06 29° 118° (ESE) 02:04:44 145.825 MHz
ISS 30 Jul 02:00:28 02:01:52 12° 159° (SSE) 02:03:15 145.800 FM
Oscar 16 30 Jul 02:05:12 02:08:09 15° 81° (E) 02:11:06 437.025 USB, Beacon 2401.1428
OPAL 30 Jul 02:16:17 02:19:51 20° 37° (NE) 02:23:27 ?
ITAMSAT 1 30 Jul 02:29:16 02:31:12 12° 77° (ENE) 02:33:07 435.822 SSB
MaSat-1 30 Jul 02:33:19 02:37:50 33° 353° (N) 02:42:37 437.345 MHz
RS-15 30 Jul 02:37:11 02:39:58 11° 274° (W) 02:42:47 29.354 - 29.394 USB, Beacon 29.352 USB
Uribyol 2 30 Jul 02:47:32 02:50:47 17° 83° (E) 02:54:01 436.500 FM
AO-27 30 Jul 02:47:57 02:51:10 16° 82° (E) 02:54:22 436.795 MHz FM
Sapphire 30 Jul 03:04:24 03:09:43 61° 132° (SE) 03:15:05 437.095 MHz 1200 baud AX-25 AFSK
Oscar 19 30 Jul 03:14:55 03:19:46 39° 96° (E) 03:24:37 437.125 CW, 437.150 USB
Gurwin Techsat 1B 30 Jul 03:17:20 03:20:09 14° 79° (E) 03:22:58 435.225 FM
AO-Echo 30 Jul 03:21:54 03:26:17 27° 90° (E) 03:30:32 ?
JAS-1B 30 Jul 03:24:05 03:32:38 33° 82° (E) 03:40:19 435.800 - 435.900 CW/SSB
ISS 30 Jul 03:35:22 03:37:40 17° 179° (S) 03:39:59 145.800 FM
PCSat 30 Jul 03:37:34 03:43:01 86° 141° (SE) 03:48:30 145.825 MHz
Oscar 16 30 Jul 03:43:29 03:48:38 60° 103° (ESE) 03:53:45 437.025 USB, Beacon 2401.1428
OPAL 30 Jul 03:53:07 03:57:58 58° 60° (ENE) 04:02:54 ?
ITAMSAT 1 30 Jul 04:06:59 04:12:02 48° 100° (E) 04:17:03 435.822 SSB
MaSat-1 30 Jul 04:11:32 04:16:20 37° 17° (NNE) 04:21:17 437.345 MHz
Uribyol 2 30 Jul 04:26:08 04:31:18 66° 105° (ESE) 04:36:27 436.500 FM
AO-27 30 Jul 04:26:33 04:31:45 65° 104° (ESE) 04:36:54 436.795 MHz FM
TMSAT-1 30 Jul 04:30:57 04:35:43 32° 93° (E) 04:40:27 436.925 FM
STRAND 1 30 Jul 04:42:25 04:45:18 15° 34° (NE) 04:48:11 ?
Sapphire 30 Jul 04:47:56 04:53:18 59° 336° (NNW) 04:58:42 437.095 MHz 1200 baud AX-25 AFSK
Oscar 19 30 Jul 04:54:18 04:59:21 55° 298° (WNW) 05:04:24 437.125 CW, 437.150 USB
Gurwin Techsat 1B 30 Jul 04:56:05 05:01:21 56° 102° (ESE) 05:06:35 435.225 FM
AO-Echo 30 Jul 05:00:26 05:05:38 76° 292° (WNW) 05:10:38 ?
ISS 30 Jul 05:11:49 05:13:31 13° 199° (SSW) 05:15:12 145.800 FM
JAS-1B 30 Jul 05:14:40 05:24:35 83° 108° (ESE) 05:33:16 435.800 - 435.900 CW/SSB
Uosat F 30 Jul 05:20:09 05:24:09 23° 89° (E) 05:28:06 435.120 FM
PCSat 30 Jul 05:21:36 05:26:54 50° 345° (NNW) 05:32:12 145.825 MHz
AO-7 30 Jul 05:22:20 05:29:28 30° 88° (E) 05:36:33 29.400 - 29.500 MHz
Oscar 16 30 Jul 05:23:08 05:27:52 38° 305° (NW) 05:32:36 437.025 USB, Beacon 2401.1428
OPAL 30 Jul 05:32:37 05:37:10 36° 261° (W) 05:41:46 ?
KITSAT 1 30 Jul 05:37:19 05:39:38 11° 93° (E) 05:41:58 435.175 FM
ITAMSAT 1 30 Jul 05:46:39 05:51:36 46° 302° (WNW) 05:56:31 435.822 SSB
MaSat-1 30 Jul 05:49:08 05:54:24 72° 40° (NE) 05:59:42 437.345 MHz
Uribyol 2 30 Jul 06:05:55 06:10:36 35° 306° (NW) 06:15:15 436.500 FM
AO-27 30 Jul 06:06:22 06:11:06 36° 306° (NW) 06:15:48 436.795 MHz FM
TMSAT-1 30 Jul 06:10:48 06:16:05 67° 295° (WNW) 06:21:20 436.925 FM
STRAND 1 30 Jul 06:18:36 06:23:23 40° 56° (ENE) 06:28:11 ?
Sapphire 30 Jul 06:32:20 06:37:33 44° 1° (N) 06:42:46 437.095 MHz 1200 baud AX-25 AFSK
Oscar 19 30 Jul 06:34:19 06:37:50 19° 320° (NW) 06:41:21 437.125 CW, 437.150 USB
Gurwin Techsat 1B 30 Jul 06:36:18 06:41:17 41° 303° (WNW) 06:46:14 435.225 FM
AO-Echo 30 Jul 06:39:43 06:43:46 24° 314° (NW) 06:47:43 ?
Hamsat 30 Jul 06:51:13 06:54:05 17° 85° (E) 06:56:56 145.90 MHz
Uosat F 30 Jul 06:58:33 07:03:37 88° 290° (WNW) 07:08:39 435.120 FM
Oscar 16 30 Jul 07:03:21 07:06:03 15° 327° (NNW) 07:08:45 437.025 USB, Beacon 2401.1428
JAS-1B 30 Jul 07:05:19 07:14:30 47° 314° (NW) 07:22:49 435.800 - 435.900 CW/SSB
PCSat 30 Jul 07:05:56 07:11:12 47° 10° (N) 07:16:28 145.825 MHz
AO-7 30 Jul 07:15:08 07:23:34 82° 113° (ESE) 07:31:54 29.400 - 29.500 MHz
JAS-2 30 Jul 07:20:03 07:25:22 28° 86° (E) 07:30:11 435.800 - 435.900 CW/SSB, 435.910 FM
KITSAT 1 30 Jul 07:25:29 07:32:45 38° 117° (ESE) 07:40:01 435.175 FM
MaSat-1 30 Jul 07:26:41 07:31:36 39° 242° (WSW) 07:36:26 437.345 MHz
ITAMSAT 1 30 Jul 07:26:52 07:30:05 17° 324° (NW) 07:33:16 435.822 SSB
Uribyol 2 30 Jul 07:46:16 07:48:50 14° 329° (NNW) 07:51:24 436.500 FM
AO-27 30 Jul 07:46:44 07:49:23 14° 329° (NNW) 07:52:03 436.795 MHz FM
TMSAT-1 30 Jul 07:51:17 07:55:17 22° 317° (NW) 07:59:17 436.925 FM
SO-67 30 Jul 07:56:21 07:57:41 12° 84° (E) 07:59:00 435.3500 MHz FM
STRAND 1 30 Jul 07:57:28 08:02:32 55° 258° (WSW) 08:07:37 ?
Sapphire 30 Jul 08:16:20 08:21:45 62° 26° (NNE) 08:27:09 437.095 MHz 1200 baud AX-25 AFSK
Gurwin Techsat 1B 30 Jul 08:17:01 08:20:07 16° 326° (NW) 08:23:12 435.225 FM
AO-Echo 30 Jul 08:20:06 08:20:56 10° 338° (NNW) 08:21:47 ?
Hamsat 30 Jul 08:26:25 08:30:45 82° 106° (ESE) 08:35:05 145.90 MHz
Uosat F 30 Jul 08:37:48 08:41:56 26° 312° (NW) 08:46:03 435.120 FM
PCSat 30 Jul 08:49:44 08:55:13 80° 34° (NE) 09:00:41 145.825 MHz
JAS-1B 30 Jul 08:55:14 09:02:58 28° 340° (NNW) 09:10:17 435.800 - 435.900 CW/SSB
JAS-2 30 Jul 09:04:56 09:11:22 84° 291° (WNW) 09:17:00 435.800 - 435.900 CW/SSB, 435.910 FM
MaSat-1 30 Jul 09:06:35 09:07:40 11° 263° (W) 09:08:45 437.345 MHz
AO-7 30 Jul 09:08:11 09:15:58 45° 318° (NW) 09:23:42 29.400 - 29.500 MHz
Saudisat 1A 30 Jul 09:13:56 09:17:49 31° 129° (SE) 09:21:43 436.775 MHz
KITSAT 1 30 Jul 09:19:21 09:27:29 86° 143° (SE) 09:35:38 435.175 FM
SO-67 30 Jul 09:27:56 09:31:26 72° 105° (ESE) 09:34:55 435.3500 MHz FM
TMSAT-1 30 Jul 09:32:47 09:33:33 10° 341° (NNW) 09:34:18 436.925 FM
STRAND 1 30 Jul 09:40:20 09:42:55 14° 280° (W) 09:45:30 ?
Sapphire 30 Jul 09:59:57 10:05:17 57° 229° (SW) 10:10:35 437.095 MHz 1200 baud AX-25 AFSK
Hamsat 30 Jul 10:02:55 10:06:20 24° 307° (NW) 10:09:47 145.90 MHz
HO-68 30 Jul 10:12:36 10:18:49 31° 90° (E) 10:24:59 435.675 MHz FM
Uosat F 30 Jul 10:17:54 10:19:18 11° 335° (NNW) 10:20:41 435.120 FM
PCSat 30 Jul 10:33:24 10:38:22 38° 237° (WSW) 10:43:20 145.825 MHz
JAS-1B 30 Jul 10:43:30 10:50:43 24° 6° (N) 10:57:47 435.800 - 435.900 CW/SSB
UKube-1 30 Jul 10:48:14 10:52:04 29° 94° (E) 10:55:51 145.840 MHz, 145.915 MHz
JAS-2 30 Jul 10:50:19 10:55:45 29° 317° (NW) 11:00:40 435.800 - 435.900 CW/SSB, 435.910 FM
Saudisat 1A 30 Jul 10:52:37 10:57:05 90° 150° (SSE) 11:01:33 436.775 MHz
AO-7 30 Jul 11:00:31 11:07:06 27° 344° (NNW) 11:13:40 29.400 - 29.500 MHz
SO-67 30 Jul 11:01:35 11:04:11 20° 305° (NW) 11:06:46 435.3500 MHz FM
KITSAT 1 30 Jul 11:15:23 11:23:27 64° 350° (N) 11:31:31 435.175 FM
Oscar 19 30 Jul 11:27:20 11:30:01 15° 33° (NNE) 11:32:43 437.125 CW, 437.150 USB
Oscar 11 30 Jul 11:31:31 11:35:38 40° 97° (E) 11:39:44 145.825 FM, Beacon 2401.500 USB
AO-Echo 30 Jul 11:32:30 11:34:15 12° 26° (NNE) 11:35:59 ?
Sapphire 30 Jul 11:44:19 11:47:43 17° 251° (WSW) 11:51:07 437.095 MHz 1200 baud AX-25 AFSK
Oscar 16 30 Jul 11:54:47 11:58:17 19° 40° (NE) 12:01:48 437.025 USB, Beacon 2401.1428
FUNcube-1 30 Jul 11:57:34 12:01:19 31° 94° (E) 12:05:04 145.950 - 145.970 MHz USB
HO-68 30 Jul 12:00:15 12:07:28 89° 112° (ESE) 12:14:38 435.675 MHz FM
ITAMSAT 1 30 Jul 12:19:26 12:22:45 17° 37° (NE) 12:26:04 435.822 SSB
UKube-1 30 Jul 12:24:17 12:28:36 60° 295° (WNW) 12:32:54 145.840 MHz, 145.915 MHz
JAS-1B 30 Jul 12:30:24 12:38:41 34° 32° (NNE) 12:46:58 435.800 - 435.900 CW/SSB
Saudisat 1A 30 Jul 12:32:37 12:37:00 54° 354° (N) 12:41:22 436.775 MHz
JAS-2 30 Jul 12:35:29 12:38:59 15° 342° (NNW) 12:42:17 435.800 - 435.900 CW/SSB, 435.910 FM
Uribyol 2 30 Jul 12:37:44 12:41:31 21° 42° (NE) 12:45:18 436.500 FM
AO-27 30 Jul 12:38:22 12:42:10 21° 41° (NE) 12:45:58 436.795 MHz FM
TMSAT-1 30 Jul 12:46:39 12:49:11 14° 30° (NNE) 12:51:44 436.925 FM
RS-15 30 Jul 12:50:41 12:56:54 17° 94° (E) 13:03:04 29.354 - 29.394 USB, Beacon 29.352 USB
AO-7 30 Jul 12:51:14 12:57:40 26° 11° (NNE) 13:04:06 29.400 - 29.500 MHz
Oscar 19 30 Jul 13:03:30 13:08:11 38° 55° (NE) 13:12:55 437.125 CW, 437.150 USB
AO-Echo 30 Jul 13:07:09 13:11:34 27° 49° (NE) 13:15:56 ?
Oscar 11 30 Jul 13:07:48 13:11:55 43° 298° (WNW) 13:16:02 145.825 FM, Beacon 2401.500 USB
Gurwin Techsat 1B 30 Jul 13:10:27 13:14:06 19° 39° (NE) 13:17:45 435.225 FM
KITSAT 1 30 Jul 13:11:43 13:19:50 68° 18° (NNE) 13:27:55 435.175 FM
Uosat F 30 Jul 13:31:36 13:32:47 11° 24° (NNE) 13:33:58 435.120 FM
Oscar 16 30 Jul 13:31:46 13:36:46 55° 62° (ENE) 13:41:49 437.025 USB, Beacon 2401.1428
FUNcube-1 30 Jul 13:33:55 13:37:58 51° 295° (WNW) 13:42:02 145.950 - 145.970 MHz USB
HO-68 30 Jul 13:48:15 13:54:40 37° 317° (NW) 14:01:03 435.675 MHz FM
ITAMSAT 1 30 Jul 13:56:16 14:01:16 48° 59° (ENE) 14:06:16 435.822 SSB
UKube-1 30 Jul 14:01:17 14:04:06 17° 317° (NW) 14:06:55 145.840 MHz, 145.915 MHz
Saudisat 1A 30 Jul 14:12:38 14:17:04 64° 17° (NNE) 14:21:29 436.775 MHz
Uribyol 2 30 Jul 14:15:06 14:20:14 63° 64° (ENE) 14:25:22 436.500 FM
AO-27 30 Jul 14:15:45 14:20:55 62° 64° (ENE) 14:26:04 436.795 MHz FM
SO-50 30 Jul 14:17:18 14:21:26 36° 131° (SE) 14:25:39 436.795 FM
JAS-1B 30 Jul 14:18:16 14:27:40 63° 56° (ENE) 14:37:21 435.800 - 435.900 CW/SSB
JAS-2 30 Jul 14:18:41 14:21:40 13° 8° (N) 14:24:32 435.800 - 435.900 CW/SSB, 435.910 FM
TMSAT-1 30 Jul 14:23:05 14:27:48 34° 53° (NE) 14:32:32 436.925 FM
AO-7 30 Jul 14:41:04 14:48:38 40° 38° (NE) 14:56:13 29.400 - 29.500 MHz
Oscar 19 30 Jul 14:42:21 14:47:25 60° 257° (WSW) 14:52:32 437.125 CW, 437.150 USB
AO-Echo 30 Jul 14:44:29 14:49:51 88° 71° (ENE) 14:55:10 ?
Oscar 11 30 Jul 14:45:10 14:47:11 13° 320° (NW) 14:49:13 145.825 FM, Beacon 2401.500 USB
Gurwin Techsat 1B 30 Jul 14:48:00 14:53:10 54° 62° (ENE) 14:58:22 435.225 FM
RS-15 30 Jul 14:56:00 15:06:18 49° 121° (ESE) 15:16:33 29.354 - 29.394 USB, Beacon 29.352 USB
Uosat F 30 Jul 15:06:02 15:10:06 25° 47° (NE) 15:14:11 435.120 FM
KITSAT 1 30 Jul 15:07:28 15:15:33 73° 224° (SW) 15:23:34 435.175 FM
FUNcube-1 30 Jul 15:11:23 15:13:36 14° 317° (NW) 15:15:48 145.950 - 145.970 MHz USB
Oscar 16 30 Jul 15:11:37 15:16:23 38° 264° (W) 15:21:12 437.025 USB, Beacon 2401.1428
HO-68 30 Jul 15:35:47 15:40:43 21° 342° (NNW) 15:45:38 435.675 MHz FM
ITAMSAT 1 30 Jul 15:35:51 15:40:52 46° 261° (W) 15:45:54 435.822 SSB
Saudisat 1A 30 Jul 15:52:22 15:56:43 56° 220° (SW) 16:01:02 436.775 MHz
Uribyol 2 30 Jul 15:55:22 16:00:05 34° 266° (W) 16:04:48 436.500 FM
AO-27 30 Jul 15:56:01 16:00:47 35° 265° (W) 16:05:34 436.795 MHz FM
SO-50 30 Jul 15:57:10 16:01:44 84° 333° (NNW) 16:06:27 436.795 FM
JAS-2 30 Jul 15:59:31 16:04:37 21° 33° (NNE) 16:09:21 435.800 - 435.900 CW/SSB, 435.910 FM
TMSAT-1 30 Jul 16:02:10 16:07:28 72° 255° (WSW) 16:12:49 436.925 FM
UOSAT-12 30 Jul 16:08:10 16:12:25 36° 130° (SE) 16:16:44 437.025 FM, 437.400 FM
JAS-1B 30 Jul 16:08:51 16:18:15 62° 261° (W) 16:28:08 435.800 - 435.900 CW/SSB
Hamsat 30 Jul 16:21:19 16:23:02 12° 40° (NE) 16:24:45 145.90 MHz
AO-Echo 30 Jul 16:24:58 16:29:17 25° 272° (W) 16:33:35 ?
Oscar 19 30 Jul 16:25:03 16:27:54 15° 279° (W) 16:30:47 437.125 CW, 437.150 USB
Gurwin Techsat 1B 30 Jul 16:28:21 16:33:22 41° 263° (W) 16:38:25 435.225 FM
AO-7 30 Jul 16:32:23 16:40:48 86° 63° (ENE) 16:49:13 29.400 - 29.500 MHz
Uosat F 30 Jul 16:43:18 16:48:22 83° 69° (ENE) 16:53:28 435.120 FM
KITSAT 1 30 Jul 17:03:13 17:09:52 29° 249° (WSW) 17:16:29 435.175 FM
RS-15 30 Jul 17:06:56 17:17:57 89° 330° (NNW) 17:29:01 29.354 - 29.394 USB, Beacon 29.352 USB
ITAMSAT 1 30 Jul 17:20:04 17:21:45 11° 283° (WNW) 17:23:25 435.822 SSB
HO-68 30 Jul 17:21:38 17:26:12 19° 8° (N) 17:30:45 435.675 MHz FM
OPAL 30 Jul 17:31:32 17:35:52 28° 95° (E) 17:40:12 ?
Saudisat 1A 30 Jul 17:32:46 17:35:32 16° 242° (WSW) 17:38:17 436.775 MHz
SO-50 30 Jul 17:38:09 17:42:42 55° 357° (N) 17:47:21 436.795 FM
JAS-2 30 Jul 17:41:22 17:48:26 47° 56° (NE) 17:54:50 435.800 - 435.900 CW/SSB, 435.910 FM
TMSAT-1 30 Jul 17:44:44 17:48:23 19° 277° (W) 17:52:02 436.925 FM
UOSAT-12 30 Jul 17:47:36 17:52:19 85° 333° (NNW) 17:57:06 437.025 FM, 437.400 FM
Hamsat 30 Jul 17:54:06 17:58:03 41° 62° (ENE) 18:02:03 145.90 MHz
JAS-1B 30 Jul 18:03:29 18:10:52 24° 286° (WNW) 18:18:31 435.800 - 435.900 CW/SSB
Uosat F 30 Jul 18:23:41 18:27:47 25° 270° (W) 18:31:55 435.120 FM
AO-7 30 Jul 18:26:59 18:34:33 36° 267° (W) 18:42:09 29.400 - 29.500 MHz
SO-67 30 Jul 18:38:39 18:41:21 21° 56° (ENE) 18:44:04 435.3500 MHz FM
HO-68 30 Jul 19:06:05 19:11:57 29° 34° (NE) 19:17:50 435.675 MHz FM
OPAL 30 Jul 19:10:13 19:15:17 77° 296° (WNW) 19:20:23 ?
SO-50 30 Jul 19:19:04 19:23:44 71° 21° (NNE) 19:28:30 436.795 FM
RS-15 30 Jul 19:20:06 19:31:05 73° 2° (N) 19:42:13 29.354 - 29.394 USB, Beacon 29.352 USB
JAS-2 30 Jul 19:25:51 19:33:24 66° 257° (WSW) 19:40:13 435.800 - 435.900 CW/SSB, 435.910 FM
UOSAT-12 30 Jul 19:28:12 19:32:51 56° 356° (N) 19:37:33 437.025 FM, 437.400 FM
Hamsat 30 Jul 19:30:08 19:34:06 40° 263° (W) 19:38:07 145.90 MHz
STRAND 1 30 Jul 19:57:45 20:02:02 26° 90° (E) 20:06:17 ?
SO-67 30 Jul 20:10:42 20:14:09 64° 257° (WSW) 20:17:39 435.3500 MHz FM
UKube-1 30 Jul 20:18:38 20:22:02 22° 49° (NE) 20:25:26 145.840 MHz, 145.915 MHz
AO-7 30 Jul 20:28:46 20:30:20 11° 294° (WNW) 20:31:54 29.400 - 29.500 MHz
OPAL 30 Jul 20:49:35 20:53:37 25° 318° (NW) 20:57:41 ?
HO-68 30 Jul 20:51:37 20:58:41 65° 58° (ENE) 21:05:46 435.675 MHz FM
SO-50 30 Jul 20:59:45 21:04:17 50° 223° (SW) 21:08:54 436.795 FM
Oscar 11 30 Jul 21:01:20 21:04:52 25° 53° (NE) 21:08:25 145.825 FM, Beacon 2401.500 USB
UOSAT-12 30 Jul 21:08:45 21:13:30 70° 20° (NNE) 21:18:15 437.025 FM, 437.400 FM
JAS-2 30 Jul 21:14:08 21:19:39 22° 279° (W) 21:24:50 435.800 - 435.900 CW/SSB, 435.910 FM
FUNcube-1 30 Jul 21:28:58 21:32:07 21° 51° (NE) 21:35:15 145.950 - 145.970 MHz USB
MaSat-1 30 Jul 21:29:06 21:31:49 16° 102° (ESE) 21:34:41 437.345 MHz
RS-15 30 Jul 21:33:08 21:44:08 87° 213° (SSW) 21:55:24 29.354 - 29.394 USB, Beacon 29.352 USB
STRAND 1 30 Jul 21:36:41 21:41:50 80° 292° (WNW) 21:46:57 ?
SO-67 30 Jul 21:47:16 21:47:59 11° 278° (W) 21:48:42 435.3500 MHz FM
UKube-1 30 Jul 21:53:23 21:57:47 87° 70° (ENE) 22:02:12 145.840 MHz, 145.915 MHz
